Regional Weather Roundup
Issued by NWS State College, PA

Home | Current Version | Previous Version | Graphics & Text | Print | Product List | Glossary On
Versions: 1 2 3 4 5 6 7 8 9 10 11 12 13 14 15 16 17 18 19 20 21 22 23 24 25 26 27 28 29 30 31 32 33 34 35 36 37 38 39 40 41 42 43 44 45 46 47 48 49 50
000
ASUS41 KCTP 221410
RWRCTP

REGIONAL WEATHER ROUNDUP
NATIONAL WEATHER SERVICE STATE COLLEGE PA
900 AM EST MON DEC 22 2014

Note: "fair" indicates few or no clouds below 12,000 feet with no
significant weather and/or obstructions to visibility.

* = STATION THAT DOES NOT REPORT PRECIPITATION /E.G. RAIN...SNOW...ETC/
    THUNDER OR FOG.

PAZ002>004-007>009-013>016-020>023-029>032-221500-
WESTERN PENNSYLVANIA

CITY           SKY/WX    TMP DP  RH WIND       PRES   REMARKS
ERIE           MOCLDY    29  21  72 SE16      30.13F
MEADVILLE      MOSUNNY   25  20  81 SE6       30.10F HAZE
FRANKLIN*      MOSUNNY   25  19  80 E9        30.13F
NEW CASTLE       N/A     23  21  92 CALM      30.14S
BEAVER COUNTY  CLOUDY    28  23  80 SE3       30.12R
BUTLER*        MOSUNNY   28  23  80 E6        30.14S
PITTSBURGH INT PTSUNNY   27  24  89 SE5       30.12R FOG
PITTSBURGH     CLOUDY    29  22  75 SE7       30.11S HAZE
INDIANA*       MOSUNNY   30  25  80 VRB6      30.18S
LATROBE        PTSUNNY   32  27  80 CALM      30.16R
WASHINGTON CO* NOT AVBL
$$

PAZ004>006-010>012-017>019-024>028-033>037-041-042-045-046-049>053-221500-
CENTRAL PENNSYLVANIA

CITY           SKY/WX    TMP DP  RH WIND       PRES   REMARKS
BRADFORD       PTSUNNY   23  19  85 SE8       30.13S WCI  14
DUBOIS         MOSUNNY   23  20  88 E10       30.14S FOG     WCI  12
CLEARFIELD     MOSUNNY   22  19  89 NE8       30.20S WCI  12
JOHNSTOWN      SUNNY     25  21  85 S7        30.12F FOG
ALTOONA        CLOUDY    26  22  84 E3        30.22S
STATE COLLEGE  CLOUDY    21  19  93 CALM      30.24R
WILLIAMSPORT   PTSUNNY   24  20  84 SE3       30.30S
SELINSGROVE    SUNNY     23  20  88 CALM      30.31S FOG
FT INDIANTOWN  CLOUDY    28  24  86 E2        30.31S
CAPITAL CITY   CLOUDY    26  22  84 SW3       30.32R
HARRISBURG     PTSUNNY   25  21  85 W3        30.31R
YORK           CLOUDY    27  24  89 CALM      30.29S FOG
$$

PAZ038>040-043-044-047-048-054-055-060>062-067>071-221500-
EASTERN PENNSYLVANIA

CITY           SKY/WX    TMP DP  RH WIND       PRES   REMARKS
SCRANTON       CLOUDY    34  26  72 SE3       30.27S
MOUNT POCONO   CLOUDY    28  26  92 SE6       30.24R FOG
ALLENTOWN      CLOUDY    34  27  75 E5        30.31F
QUAKERTOWN*      N/A     32  28  86 N3        30.30F
READING        CLOUDY    27  22  81 W3        30.30F
LANCASTER      SUNNY     26  22  84 CALM      30.30R FOG
COATESVILLE    MOSUNNY   32  28  86 CALM      30.30R
POTTSTOWN      CLOUDY    30  25  81 CALM      30.31F
BLUE BELL      PTSUNNY   34  30  86 CALM      30.30S
DOYLESTOWN     CLOUDY    33  29  85 NE8       30.30F
WILLOW GROVE   NOT AVBL
NORTH PHILA    PTSUNNY   37  28  70 NE8       30.33R
PHILADELPHIA   MOSUNNY   35  28  75 VRB7      30.32S
$$


USA.gov is the U.S. government's official web portal to all federal, state and local government web resources and services.